CZ-4C R/B, 40341

Orbit data source: Space-Track

CZ-4C R/B, 40341 is space debris in LEO originally from a launch on Wed, 10 Dec 2014 UTC launched from the Jiuquan Satellite Launch Center, China (JSC). Debris objects in space refer to the collection of defunct objects orbiting the Earth. Examples of debris include non-operational satellites, rocket bodies, and fragments generated from explosions, collisions, or faulty payload assembly.

Loading next visibility...
Identifier
40341, 2014-080D
Orbit
LEO
Country
Flag of CNCN / PRC
Related business
Manufacturer
SAST
Mission
Spacecraft
Bus & Motor
CZ-4 STAGE 3, Unknown motor
Mass
~1,000 kg wet, ~1,000 kg dry
Launch date (UTC)
2014-12-10 (11 years ago)
Launch vehicle
Unknown
Launch site
Jiuquan Satellite Launch Center, China (JSC)
Object type
Payload
Rocket body
Debris
Shape & HBR
Cyl, 1.4 m
Radar Cross Section
20.385 m², Large (>1 m²)

Expand to show TLE details & history
Last TLE update: 22 hours ago

TLE from 22 hours ago
0 CZ-4C R/B
1 40341U 14080D   25338.48567421  .00000289  00000-0  17487-3 0  9992
2 40341  63.4300  22.0039 0520009 352.7745   6.5995 13.69762029549158
Epoch: 2025-12-04T11:39Z
TLE epoch observation values (Epoch: 2025-12-04T11:39:22.251Z)
Latitude
-0.00003°
Longitude
133.61974°
Altitude
621.326 km
Speed
7.741 km/s
True Right ascension
01h 28m 00s
True Declination
0° 00' 00"
Sunlit
Object was in full shadow at epoch
Visualization orbit readout
Latitude
Unknown
Longitude
Unknown
Altitude
Unknown
Speed
Unknown
Apparent Right ascension
Unknown
Apparent Declination
Unknown
Sunlit
N/A
Visualization observer readout
Local Sidereal Time
07:17:12
Azimuth
Unknown
Elevation
Unknown
Doppler factor
Unknown
Orbital elements
Apogee altitude
1,382.862 km
Perigee altitude
615.602 km
Semi-major axis
7,377.369 km
Eccentricity
0.052
Inclination
63.43°
RAAN
22.0039°
Arg. of periapsis
352.7745°
True anomaly
7.33145°
Mean anomaly
6.5995°
Eccentric anomaly
6.96057°
Mean motion
3.42524 °/min
Orbital period
105.1 mins
BSTAR
0.00017487
Loading maneuver chart data...
Computing Atmospheric mass density...
Loading historical data...
Loading historical data...
Loading historical data...
Loading historical data...
Loading historical data...
Loading historical data...
Loading historical data...

Documentation

Showing up to 5 results
|